Погода в Сиваслы

Турция     38°29′52″N   29°40′45″E
темп.,
°C
ветер,
м/с
пор.,
м/с
влажн.,
%
обл.,
%
осадки,
мм/ч
давл.,
гПа
погр.,
м
8 марта, пн
пн800:000юз129420 0.0 102122
03:00−1зюз11979 0.0 102022
06:00−2зюз119928 0.0 102021
09:000ю117124 0.0 1019204
12:00+5зюз33340 0.0 1017715
15:00+7з34311 0.0 1014967
18:00+6зсз3335100 0.0 1014848
21:00+2зсз1152100 0.0 101622
9 марта, вт
вт900:00+1з1153100 0.0 101722
03:00+1сз0157100 0.0 101722
06:00+1всв0159100 0.0 101722
09:00+4вюв1146100 0.0 1018110
12:00+7в1134100 0.0 1016676
15:00+10ююз1228100 0.0 10151260
18:00+9юз223399 0.0 1015904
21:00+4юв227850 0.0 101731
10 марта, ср
ср1000:00+3в22790 0.0 101722
03:00+2в227717 0.0 101722
06:00+2в227970 0.0 101622
09:00+6в226685 0.0 101667
12:00+10зюз1249100 0.0 10131029
15:00+13зюз454281 0.0 10111666
18:00+11з45482 0.0 10101536
21:00+7сз226814 0.0 101223
11 марта, чт
чт1100:00+5сз127719 0.0 101322
03:00+6зюз257754 0.1 1013344
06:00+4з228686 0.1 101456
09:00+5з258393 0.2 1014493
12:00+6зсз3483100 0.1 1015550
15:00+7сз4575100 0.4 1015797
18:00+6ссв557086 0.1 1017793
21:000всв497469 0.1 1021561
12 марта, пт
пт1200:00−2всв47750 0.0 1023309
03:00−2всв35680 0.0 1024195
06:00−3всв34600 0.0 102499
09:000в33380 0.0 1025280
12:00+5в23250 0.0 1023681
15:00+9всв01230 0.0 1020794
18:00+9з11260 0.0 1020632
21:00+3ююв11440 0.0 102122